TimeMST,TemperatureF,Dew PointF,Humidity,Sea Level PressureIn,VisibilityMPH,Wind Direction,Wind SpeedMPH,Gust SpeedMPH,PrecipitationIn,Events,Conditions,WindDirDegrees,DateUTC
12:53 AM,36.0,25.0,64,30.00,10.0,NW,4.6,-,N/A,,Mostly Cloudy,310,2011-11-08 07:53:00
1:53 AM,33.8,24.8,70,30.03,10.0,Calm,Calm,-,N/A,,Overcast,0,2011-11-08 08:53:00
2:53 AM,33.1,25.0,72,30.03,10.0,West,3.5,-,N/A,,Overcast,280,2011-11-08 09:53:00
3:53 AM,33.1,24.1,70,30.05,10.0,Calm,Calm,-,N/A,,Overcast,0,2011-11-08 10:53:00
4:53 AM,33.8,23.0,65,30.08,10.0,West,3.5,-,N/A,,Overcast,280,2011-11-08 11:53:00
5:53 AM,33.1,21.9,64,30.11,10.0,Calm,Calm,-,N/A,,Scattered Clouds,0,2011-11-08 12:53:00
6:53 AM,32.0,21.9,66,30.15,10.0,NNW,3.5,-,N/A,,Clear,330,2011-11-08 13:53:00
7:53 AM,33.1,24.1,70,30.18,10.0,NNW,5.8,-,N/A,,Clear,340,2011-11-08 14:53:00
8:53 AM,35.1,24.1,64,30.21,10.0,WNW,5.8,-,N/A,,Clear,290,2011-11-08 15:53:00
9:53 AM,39.0,25.0,57,30.21,10.0,WNW,5.8,-,N/A,,Partly Cloudy,290,2011-11-08 16:53:00
10:53 AM,43.0,21.9,43,30.21,10.0,WSW,9.2,-,N/A,,Clear,250,2011-11-08 17:53:00
11:53 AM,44.1,21.9,42,30.19,10.0,Variable,5.8,-,N/A,,Clear,0,2011-11-08 18:53:00
12:53 PM,46.0,21.0,37,30.18,10.0,Variable,5.8,-,N/A,,Clear,0,2011-11-08 19:53:00
1:53 PM,46.0,19.9,35,30.18,10.0,WNW,5.8,-,N/A,,Clear,290,2011-11-08 20:53:00
2:53 PM,46.0,19.9,35,30.18,10.0,Variable,5.8,-,N/A,,Clear,0,2011-11-08 21:53:00
3:53 PM,46.0,19.0,34,30.20,10.0,WSW,6.9,-,N/A,,Clear,250,2011-11-08 22:53:00
4:53 PM,43.0,23.0,45,30.22,10.0,WNW,3.5,-,N/A,,Clear,300,2011-11-08 23:53:00
5:53 PM,37.9,23.0,55,30.27,10.0,North,4.6,-,N/A,,Clear,360,2011-11-09 00:53:00
6:53 PM,35.1,24.1,64,30.31,10.0,Calm,Calm,-,N/A,,Clear,0,2011-11-09 01:53:00
7:53 PM,37.0,21.9,54,30.32,10.0,North,9.2,-,N/A,,Clear,360,2011-11-09 02:53:00
8:53 PM,37.0,23.0,57,30.34,10.0,North,8.1,-,N/A,,Clear,360,2011-11-09 03:53:00
9:53 PM,30.0,24.1,79,30.38,10.0,Calm,Calm,-,N/A,,Clear,0,2011-11-09 04:53:00
10:53 PM,30.0,24.1,79,30.38,10.0,East,3.5,-,N/A,,Clear,100,2011-11-09 05:53:00
11:53 PM,30.0,23.0,75,30.39,10.0,ENE,3.5,-,N/A,,Clear,70,2011-11-09 06:53:00